Station GDXM6 - Crooked Bayou, Grand Bay Reserve, MS Image indicating link to RSS feed of recent meteorological observations for station GDXM6


Conditions at GDXM6 as of
(8:45 am CDT)
1345 GMT on 05/29/2024:
     

Click on the graph icon in the table below to see a time series plot of the last five days of that observation.

5-day plot - Wind Direction Wind Direction (WDIR): NE ( 50 deg true )
5-day plot - Wind Speed Wind Speed (WSPD): 7.0 kts
5-day plot - Atmospheric Pressure Atmospheric Pressure (PRES):30.15 in
5-day plot - Air Temperature Air Temperature (ATMP): 79.2 °F
5-day plot - Dew Point Dew Point (DEWP): 67.1 °F
5-day plot - Heat Index Heat Index (HEAT): 81.3 °F
5-day plot -  Wind Speed, Wind Gust and Atmospheric Pressure Combined plot of Wind Speed, Gust, and Air Pressure
Previous observations
TIME
(CDT)
5-day plot - Wind Direction
WDIR
 
5-day plot - Wind Speed
WSPD
kts
5-day plot - Wind Gust
GST
kts
5-day plot - Wave Height
WVHT
ft
5-day plot - Dominant Wave Period
DPD
sec
5-day plot - Average Wave Period
APD
sec
5-day plot - Mean Wave Direction
MWD
 
5-day plot - Atmospheric Pressure
PRES
in
5-day plot - Pressure Tendency
PTDY
in
5-day plot - Air Temperature
ATMP
°F
5-day plot - Water Temperature
WTMP
°F
5-day plot - Dew Point
DEWP
°F
5-day plot - Salinity
SAL
psu
5-day plot - Visibility
VIS
nmi
5-day plot - Tide (above MLLW)
TIDE
ft
2024-05-29 08:30 amENE 6.0-----30.15- 78.6- 67.5---
2024-05-29 08:15 am NE 6.0-----30.15- 78.4- 67.3---
2024-05-29 08:00 amENE 7.0-----30.15+0.06 78.4- 67.3---
2024-05-29 07:45 am NE 6.0-----30.12- 78.1- 67.8---
2024-05-29 07:30 amNNE 4.1-----30.12- 76.1- 68.9---
2024-05-29 07:15 amNNE 2.9-----30.12- 74.8- 68.0---
2024-05-29 07:00 am N 4.1-----30.12+0.06 74.5- 68.0---
2024-05-29 06:45 amNNE 6.0-----30.12- 77.2- 67.6---
2024-05-29 06:30 am NE 8.0-----30.09- 78.1- 67.3---
2024-05-29 06:15 am NE 7.0-----30.09- 77.9- 67.6---
2024-05-29 06:00 am NE 6.0-----30.09+0.06 76.6- 68.0---
2024-05-29 05:45 amNNE 5.1-----30.09- 75.2- 68.7---
2024-05-29 05:30 amNNE 4.1-----30.09- 75.0- 69.3---
2024-05-29 05:15 amNNE 5.1-----30.09- 74.5- 69.4---
2024-05-29 05:00 am N 5.1-----30.09+0.06 74.3- 70.3---
2024-05-29 04:45 am N 5.1-----30.09- 74.8- 70.2---
2024-05-29 04:30 am N 5.1-----30.09- 74.7- 70.9---
2024-05-29 04:15 am N 5.1-----30.06- 75.6- 70.9---
2024-05-29 04:00 amNNE 5.1-----30.06+0.03 75.7- 70.7---
2024-05-29 03:45 am N 4.1-----30.06- 74.8- 71.4---
2024-05-29 03:30 am N 4.1-----30.06- 74.8- 71.4---
2024-05-29 03:15 am N 5.1-----30.06- 74.8- 71.4---
2024-05-29 03:00 am N 4.1-----30.03+0.00 75.0- 72.0---
2024-05-29 02:45 am N 5.1-----30.03- 75.2- 71.8---
2024-05-29 02:30 am N 5.1-----30.03- 75.2- 71.8---
2024-05-29 02:15 am N 5.1-----30.03- 75.0- 72.0---
2024-05-29 02:00 am N 5.1-----30.03-0.03 75.2- 72.1---
2024-05-29 01:45 am N 5.1-----30.03- 75.6- 72.5---
2024-05-29 01:30 amNNW 5.1-----30.03- 76.1- 72.3---
2024-05-29 01:15 am N 5.1-----30.03- 76.6- 72.5---
2024-05-29 01:00 amNNW 6.0-----30.03-0.03 77.2- 73.0---
2024-05-29 12:45 amNNW 7.0-----30.03- 77.5- 73.4---
2024-05-29 12:30 amNNW 6.0-----30.03- 78.3- 73.8---
2024-05-29 12:15 amNNW 8.0-----30.03- 78.8- 73.9---
2024-05-29 12:00 amNNW 8.0-----30.03-0.03 79.2- 74.3---
2024-05-28 11:45 pmNNW 7.0-----30.03- 79.7- 74.5---
2024-05-28 11:30 pmNNW 5.1-----30.03- 80.4- 75.2---
2024-05-28 11:15 pm NW 5.1-----30.03- 81.1- 75.6---
2024-05-28 11:00 pm NW 5.1-----30.06+0.00 81.5- 76.3---
2024-05-28 10:45 pmWNW 4.1-----30.06- 81.1- 77.0---
2024-05-28 10:30 pmWNW 2.9-----30.06- 81.0- 76.8---
2024-05-28 10:15 pm W 4.1-----30.06- 81.7- 77.2---
2024-05-28 10:00 pm W 6.0-----30.06+0.00 82.4- 77.2---
2024-05-28 09:45 pm W 2.9-----30.06- 81.0- 76.1---
2024-05-28 09:30 pm W 2.9-----30.06- 82.0- 76.1---
2024-05-28 09:15 pmWSW 4.1-----30.06- 82.8- 76.5---
2024-05-28 09:00 pmWSW 2.9-----30.06+0.00 82.2- 75.9---
2024-05-28 08:45 pm W 2.9-----30.03- 82.4- 75.4---
2024-05-28 08:30 pm W 2.9-----30.06- 82.6- 75.6---
2024-05-28 08:15 pm W 4.1-----30.06- 82.6- 75.6---
2024-05-28 08:00 pm W 4.1-----30.06+0.03 83.1- 75.7---
2024-05-28 07:45 pm W 4.1-----30.06- 83.1- 75.7---
2024-05-28 07:30 pm W 2.9-----30.06- 83.7- 75.9---
2024-05-28 07:15 pm W 5.1-----30.06- 84.4- 75.0---
2024-05-28 07:00 pm W 6.0-----30.06+0.03 84.9- 74.3---
2024-05-28 06:45 pm W 5.1-----30.06- 85.1- 74.8---
2024-05-28 06:30 pm W 4.1-----30.06- 85.3- 75.6---
2024-05-28 06:15 pmWSW 4.1-----30.06- 85.8- 74.8---
2024-05-28 06:00 pmWSW 4.1-----30.06+0.03 86.0- 74.1---
2024-05-28 05:45 pm SW 5.1-----30.06- 86.2- 74.3---
2024-05-28 05:30 pmSSW 6.0-----30.06- 86.4- 73.6---
2024-05-28 05:15 pmSSW 7.0-----30.06- 86.4- 73.6---
2024-05-28 05:00 pm S 7.0-----30.03+0.00 86.7- 72.5---
2024-05-28 04:45 pmSSW 7.0-----30.03- 86.7- 73.0---
2024-05-28 04:30 pmSSW 8.0-----30.03- 87.1- 73.8---
2024-05-28 04:15 pm S 8.0-----30.03- 87.1- 72.9---
2024-05-28 04:00 pm S 7.0-----30.03-0.06 87.4- 71.8---
2024-05-28 03:45 pmSSE 7.0-----30.03- 87.1- 70.9---
2024-05-28 03:30 pmSSE 7.0-----30.03- 86.9- 70.7---
2024-05-28 03:15 pmSSE 7.0-----30.03- 86.9- 71.2---
2024-05-28 03:00 pm SE 7.0-----30.03-0.06 86.9- 71.8---
2024-05-28 02:45 pm SE 8.0-----30.03- 86.7- 71.6---
2024-05-28 02:30 pm SE 8.0-----30.03- 86.7- 72.5---
2024-05-28 02:15 pm SE 8.0-----30.03- 86.4- 73.0---
2024-05-28 02:00 pm SE 8.0-----30.03-0.06 85.5- 74.5---
2024-05-28 01:45 pm SE 8.0-----30.06- 85.6- 74.1---
2024-05-28 01:30 pm SE 8.0-----30.06- 86.7- 71.6---
2024-05-28 01:15 pm SE 7.0-----30.09- 86.5- 72.0---
2024-05-28 01:00 pm SE 7.0-----30.09+0.00 86.2- 72.9---
2024-05-28 12:45 pmESE 6.0-----30.09- 86.9- 72.1---
2024-05-28 12:30 pmESE 6.0-----30.09- 87.3- 68.0---
2024-05-28 12:15 pmESE 6.0-----30.09- 87.1- 68.9---
2024-05-28 12:00 pm E 5.1-----30.09+0.03 87.1- 69.4---
2024-05-28 11:45 am E 5.1-----30.09- 86.9- 69.3---
2024-05-28 11:30 amENE 5.1-----30.09- 86.4- 69.3---
2024-05-28 11:15 am NE 6.0-----30.09- 86.2- 69.6---
2024-05-28 11:00 amENE 5.1-----30.09+0.03 85.8- 69.8---
2024-05-28 10:45 amENE 5.1-----30.09- 85.5- 70.9---
2024-05-28 10:30 am NE 5.1-----30.06- 85.3- 71.2---
2024-05-28 10:15 am NE 6.0-----30.06- 85.1- 70.5---
2024-05-28 10:00 am NE 7.0-----30.09+0.03 84.9- 69.8---